Covington, KY

5:09 AM EDT on May 23, 2017 (GMT -0400)
Cincinnati-Northern KY International

Weather History for KCVG - July, 2013

Change the Weather History Date:

Wednesday, July 31, 2013

  Actual Average Record
Temperature  
Mean Temperature 71 °F 76 °F  
Max Temperature 77 °F 85 °F 100 °F (1954)
Min Temperature 65 °F 66 °F 50 °F (1993)
Degree Days  
Heating Degree Days 0 0  
Month to date heating degree days 2 0  
Since 1 June heating degree days 3 15  
Since 1 July heating degree days 2 0  
Cooling Degree Days 6 11  
Month to date cooling degree days 304 339  
Year to date cooling degree days 682 659  
Since 1 June cooling degree days 543 565  
Growing Degree Days 20 (Base 50)    
Moisture  
Dew Point 66 °F    
Average Humidity 87    
Maximum Humidity 100    
Minimum Humidity 74    
Precipitation  
Precipitation 0.09 in 0.12 in 2.67 in (1926)
Month to date precipitation 5.46 3.76  
Year to date precipitation 29.36 26.38  
Snow  
Snow 0.00 in 0.00 in 0.00 in ()
Month to date snowfall 0.0 0.0  
Since 1 June snowfall 0.0 0.0  
Since 1 July snowfall 0.0 0.0  
Snow Depth 0.00 in    
Sea Level Pressure  
Sea Level Pressure 30.05 in    
Wind  
Wind Speed 5 mph (South)    
Max Wind Speed 14 mph    
Max Gust Speed 21 mph    
Visibility 8 miles    
Events Rain    
T = Trace of Precipitation, MM = Missing Value Source: NWS Daily Summary

Daily Weather History Graph

Daily Weather History Graph

Search for Another Location

Airport or City:

Trip Planner

Search our weather history database for the weather conditions in past years. The results will help you decide how hot, cold, wet, or windy it might be!

Date:

Astronomy

Jul. 31, 2013 Rise Set
Actual Time 6:38 AM EDT 8:50 PM EDT
Civil Twilight 6:08 AM EDT 9:20 PM EDT
Nautical Twilight 5:32 AM EDT 9:57 PM EDT
Astronomical Twilight 4:52 AM EDT 10:36 PM EDT
Moon 1:33 AM EDT (7/31) 4:06 PM EDT (7/31)
Length of Visible Light 15h 11m
Length of Day
14h 12m
Waning Crescent, 32% of the Moon is Illuminated
Jul 31
Waning Crescent
Aug 6
New
Aug 14
First Quarter
Aug 20
Full
Aug 28
Last Quarter

Hourly Weather History & Observations

Time (EDT) Temp. Dew Point Humidity Pressure Visibility Wind Dir Wind Speed Gust Speed Precip Events Conditions
12:52 AM 69.1 °F 64.0 °F 84% 30.11 in 10.0 mi South 3.5 mph - N/A   Overcast
1:52 AM 70.0 °F 64.0 °F 81% 30.11 in 10.0 mi SSW 5.8 mph - N/A   Overcast
2:52 AM 68.0 °F 64.9 °F 90% 30.10 in 10.0 mi South 10.4 mph 17.3 mph 0.00 in   Overcast
3:52 AM 66.0 °F 64.0 °F 93% 30.10 in 5.0 mi SSW 10.4 mph - 0.00 in Rain Light Rain
4:21 AM 64.4 °F 64.4 °F 100% 30.12 in 3.0 mi Calm Calm - 0.05 in Rain Light Rain
4:37 AM 64.4 °F 64.4 °F 100% 30.12 in 3.0 mi Calm Calm - 0.05 in Rain Light Rain
4:52 AM 64.9 °F 64.9 °F 100% 30.09 in 3.0 mi Calm Calm - 0.05 in Rain Light Rain
5:08 AM 64.4 °F 64.4 °F 100% 30.11 in 2.5 mi South 4.6 mph - 0.01 in Rain Light Rain
5:34 AM 64.4 °F 64.4 °F 100% 30.11 in 2.5 mi South 5.8 mph - 0.02 in Rain Light Rain
5:52 AM 64.9 °F 64.9 °F 100% 30.08 in 2.5 mi South 8.1 mph - 0.03 in Rain Light Rain
6:27 AM 64.4 °F 64.4 °F 100% 30.10 in 3.0 mi South 5.8 mph - 0.01 in Rain Light Rain
6:52 AM 64.9 °F 64.9 °F 100% 30.08 in 7.0 mi South 8.1 mph - 0.01 in   Overcast
7:44 AM 64.4 °F 64.4 °F 100% 30.11 in 3.0 mi South 10.4 mph - 0.00 in   Drizzle
7:52 AM 64.9 °F 64.9 °F 100% 30.09 in 3.0 mi South 9.2 mph - 0.00 in   Drizzle
8:11 AM 64.4 °F 64.4 °F 100% 30.10 in 2.5 mi South 8.1 mph - 0.00 in   Drizzle
8:39 AM 64.4 °F 64.4 °F 100% 30.10 in 4.0 mi SSE 5.8 mph - 0.00 in   Overcast
8:52 AM 66.0 °F 64.9 °F 96% 30.08 in 7.0 mi SSE 5.8 mph - 0.00 in   Overcast
9:06 AM 66.2 °F 64.4 °F 94% 30.10 in 9.0 mi SSE 6.9 mph - N/A   Overcast
9:29 AM 66.2 °F 64.4 °F 94% 30.09 in 9.0 mi SSE 8.1 mph - N/A   Overcast
9:52 AM 68.0 °F 64.9 °F 90% 30.07 in 9.0 mi South 9.2 mph - N/A   Overcast
10:02 AM 68.0 °F 64.4 °F 88% 30.09 in 10.0 mi SSE 9.2 mph - N/A   Overcast
10:52 AM 69.1 °F 66.0 °F 90% 30.06 in 10.0 mi South 6.9 mph - N/A   Overcast
11:52 AM 70.0 °F 66.0 °F 87% 30.05 in 10.0 mi South 6.9 mph - N/A   Overcast
12:27 PM 69.8 °F 64.4 °F 83% 30.07 in 10.0 mi South 6.9 mph - N/A   Overcast
12:52 PM 71.1 °F 66.0 °F 84% 30.04 in 10.0 mi South 4.6 mph - N/A   Overcast
1:52 PM 73.0 °F 66.0 °F 79% 30.03 in 10.0 mi Calm Calm - N/A   Overcast
2:52 PM 73.0 °F 66.9 °F 81% 30.01 in 10.0 mi South 3.5 mph - N/A   Overcast
3:52 PM 73.9 °F 66.9 °F 79% 30.00 in 10.0 mi Variable 3.5 mph - N/A   Overcast
4:05 PM 75.2 °F 66.2 °F 73% 30.02 in 10.0 mi Calm Calm - N/A   Overcast
4:52 PM 75.0 °F 66.0 °F 73% 29.98 in 10.0 mi Calm Calm - N/A   Overcast
5:52 PM 75.9 °F 66.9 °F 74% 29.97 in 9.0 mi WSW 4.6 mph - N/A   Overcast
6:52 PM 75.0 °F 68.0 °F 79% 29.96 in 10.0 mi SW 3.5 mph - N/A   Overcast
7:52 PM 73.9 °F 69.1 °F 85% 29.95 in 10.0 mi Calm Calm - N/A   Overcast
8:52 PM 73.0 °F 68.0 °F 84% 29.96 in 10.0 mi SSW 3.5 mph - N/A   Overcast
9:52 PM 72.0 °F 69.1 °F 91% 29.96 in 10.0 mi SSW 4.6 mph - N/A   Overcast
10:52 PM 72.0 °F 69.1 °F 91% 29.96 in 10.0 mi SSW 4.6 mph - N/A   Overcast
11:52 PM 72.0 °F 69.1 °F 91% 29.97 in 10.0 mi SW 3.5 mph - N/A   Overcast